Marshfield, WI

1:28 PM CST on December 09, 2019 (GMT -0600)
Marshfield Municipal

Weather History for KMFI - August, 2019

Change the Weather History Date:

Saturday, August 31, 2019

  Actual Average Record
Temperature  
Mean Temperature 58 °F -  
Max Temperature 71 °F 77 °F 94 °F (1937)
Min Temperature 48 °F 52 °F 37 °F (1967)
Degree Days  
Heating Degree Days 6    
Growing Degree Days 8 (Base 50)    
Moisture  
Dew Point 48 °F    
Average Humidity 68    
Maximum Humidity 89    
Minimum Humidity 49    
Precipitation  
Precipitation 0.00 in - - ()
Sea Level Pressure  
Sea Level Pressure 30.28 in    
Wind  
Wind Speed 3 mph (SE)    
Max Wind Speed 15 mph    
Max Gust Speed -    
Visibility 10 miles    
Events      
Averages and records for this station are not official NWS values.
T = Trace of Precipitation, MM = Missing Value Source: NWS Daily Summary

Daily Weather History Graph

Daily Weather History Graph

Search for Another Location

Airport or City:

Astronomy

Aug. 31, 2019 Rise Set
Actual Time 6:21 AM CDT 7:39 PM CDT
Civil Twilight 5:51 AM CDT 8:09 PM CDT
Nautical Twilight 5:15 AM CDT 8:45 PM CDT
Astronomical Twilight 4:36 AM CDT 9:24 PM CDT
Moon 7:39 AM CDT (8/31) 8:49 PM CDT (8/31)
Length of Visible Light 14h 18m
Length of Day
13h 17m
New Moon, 3% of the Moon is Illuminated
Aug 31
New Moon
Sep 5
First Quarter
Sep 13
Full
Sep 21
Last Quarter
Sep 28
New

Hourly Weather History & Observations

Time (CDT) Temp. Dew Point Humidity Pressure Visibility Wind Dir Wind Speed Gust Speed Precip Events Conditions
12:54 AM 50.0 °F 45.0 °F 83% 30.27 in 10.0 mi Calm Calm - N/A   Clear
1:54 AM 48.9 °F 45.0 °F 86% 30.27 in 10.0 mi Calm Calm - N/A   Clear
2:54 AM 48.0 °F 45.0 °F 89% 30.28 in 10.0 mi Calm Calm - N/A   Clear
3:54 AM 50.0 °F 45.0 °F 83% 30.28 in 10.0 mi ENE 3.5 mph - N/A   Clear
4:54 AM 51.1 °F 45.0 °F 80% 30.29 in 10.0 mi ENE 4.6 mph - N/A   Clear
5:54 AM 51.1 °F 45.0 °F 80% 30.30 in 10.0 mi ENE 3.5 mph - N/A   Clear
6:54 AM 50.0 °F 46.0 °F 86% 30.30 in 10.0 mi Calm Calm - N/A   Clear
7:54 AM 53.1 °F 48.0 °F 83% 30.31 in 10.0 mi Calm Calm - N/A   Clear
8:54 AM 55.9 °F 48.0 °F 75% 30.32 in 10.0 mi ENE 3.5 mph - N/A   Clear
9:54 AM 63.0 °F 48.9 °F 60% 30.31 in 10.0 mi SE 4.6 mph - N/A   Clear
10:54 AM 64.0 °F 48.9 °F 58% 30.32 in 10.0 mi South 5.8 mph - N/A   Clear
11:54 AM 69.1 °F 48.9 °F 49% 30.31 in 10.0 mi South 9.2 mph - N/A   Clear
12:54 PM 66.9 °F 48.9 °F 52% 30.32 in 10.0 mi SSE 9.2 mph - N/A   Clear
1:54 PM 68.0 °F 48.9 °F 50% 30.31 in 10.0 mi South 15.0 mph - N/A   Clear
2:54 PM 66.9 °F 51.1 °F 57% 30.30 in 10.0 mi South 10.4 mph - N/A   Clear
3:54 PM 66.9 °F 48.0 °F 51% 30.28 in 10.0 mi South 6.9 mph - N/A   Clear
4:54 PM 68.0 °F 48.9 °F 50% 30.27 in 10.0 mi South 9.2 mph - N/A   Partly Cloudy
5:54 PM 64.9 °F 46.9 °F 52% 30.26 in 10.0 mi South 6.9 mph - N/A   Clear
6:54 PM 64.0 °F 48.0 °F 56% 30.26 in 10.0 mi SE 4.6 mph - N/A   Partly Cloudy
7:54 PM 62.1 °F 48.9 °F 62% 30.25 in 10.0 mi SSE 3.5 mph - N/A   Mostly Cloudy
8:54 PM 62.1 °F 51.1 °F 67% 30.25 in 10.0 mi Calm Calm - N/A   Partly Cloudy
9:54 PM 57.9 °F 51.1 °F 78% 30.25 in 10.0 mi ESE 4.6 mph - N/A   Partly Cloudy
10:54 PM 57.0 °F 50.0 °F 77% 30.25 in 10.0 mi Calm Calm - N/A   Partly Cloudy
11:54 PM 55.9 °F 50.0 °F 80% 30.25 in 10.0 mi SE 3.5 mph - N/A   Mostly Cloudy